Date,TemperatureHighF,TemperatureAvgF,TemperatureLowF,DewpointHighF,DewpointAvgF,DewpointLowF,HumidityHigh,HumidityAvg,HumidityLow,PressureMaxIn,PressureMinIn,WindSpeedMaxMPH,WindSpeedAvgMPH,GustSpeedMaxMPH,PrecipitationSumIn
2013-2-1,68.0,50.8,35.0,39.0,30.5,24.0,81,51,19,0.00,40.00,7,4,0,0.00
2013-2-2,70.0,52.7,36.0,44.0,37.2,30.0,94,61,23,0.00,40.00,8,4,0,0.00
2013-2-3,69.0,53.2,36.0,49.0,39.9,31.0,97,66,26,0.00,40.00,9,4,0,0.00
2013-2-4,69.0,52.7,38.0,46.0,37.7,31.0,98,63,25,0.00,40.00,7,3,0,0.00
2013-2-5,75.0,57.3,39.0,53.0,43.7,36.0,94,65,33,0.00,40.00,8,3,0,0.00
2013-2-6,74.0,64.7,57.0,63.0,57.5,51.0,89,77,61,0.00,40.00,8,4,0,0.00
2013-2-7,79.0,68.5,59.0,65.0,61.8,58.0,99,81,53,0.00,40.00,14,6,0,0.00
2013-2-8,77.0,67.4,56.0,66.0,59.5,55.0,97,78,47,0.00,40.00,9,5,0,0.00
2013-2-9,72.0,60.0,51.0,55.0,52.4,50.0,98,78,49,0.00,40.00,11,7,0,0.00
2013-2-10,77.0,65.1,55.0,58.0,54.9,51.0,90,71,47,0.00,40.00,15,8,0,0.00
2013-2-11,82.0,69.2,57.0,62.0,59.3,57.0,97,73,45,0.00,40.00,15,6,0,0.00
2013-2-12,84.0,71.4,59.0,68.0,62.8,59.0,99,77,44,0.00,40.00,11,6,0,0.00
2013-2-13,81.0,70.3,63.0,70.0,67.2,62.0,97,90,62,0.00,40.00,15,8,0,0.17
2013-2-14,64.0,59.9,54.0,62.0,58.1,54.0,100,94,79,0.00,40.00,8,4,0,0.31
2013-2-15,69.0,56.3,48.0,54.0,50.8,48.0,100,84,52,0.00,40.00,7,4,0,0.00
2013-2-16,66.0,54.2,47.0,51.0,42.4,27.0,98,68,37,0.00,40.00,11,6,0,0.00
2013-2-17,54.0,42.7,33.0,33.0,19.7,10.0,86,43,17,0.00,40.00,11,5,0,0.00
2013-2-18,67.0,49.1,30.0,46.0,33.7,20.0,90,59,29,0.00,40.00,12,6,0,0.00
2013-2-19,78.0,61.9,45.0,56.0,50.5,43.0,95,69,40,0.00,40.00,13,5,0,0.00
2013-2-20,73.0,62.0,53.0,60.0,52.5,47.0,95,73,49,0.00,40.00,9,4,0,0.00
2013-2-21,82.0,65.2,50.0,62.0,55.9,48.0,94,74,44,0.00,40.00,10,4,0,0.00
2013-2-22,85.0,72.2,60.0,69.0,63.9,60.0,100,78,44,0.00,40.00,14,6,0,0.00
2013-2-23,86.0,75.5,68.0,69.0,66.4,62.0,97,76,45,0.00,40.00,14,8,0,0.00
2013-2-24,76.0,70.4,63.0,70.0,66.8,61.0,97,89,74,0.00,40.00,8,4,0,0.00
2013-2-25,85.0,72.3,63.0,71.0,65.4,61.0,99,81,46,0.00,40.00,11,5,0,0.00
2013-2-26,75.0,70.2,65.0,72.0,66.2,59.0,98,87,61,0.00,40.00,16,8,0,0.33
2013-2-27,72.0,63.6,55.0,62.0,52.1,46.0,91,68,40,0.00,40.00,8,6,0,0.00
2013-2-28,72.0,58.7,45.0,53.0,47.2,42.0,96,68,35,0.00,40.00,12,5,0,0.00